Flag for Canada Weather past 2 weeks in Happy Valley-Goose Bay, Newfoundland and Labrador, Canada

Now
57 °F

Mostly cloudy.


Feels Like: 55 °F
Forecast: 56 / 67 °F
Wind: 10 mph from Northeast

Location: Goose

Current Time: Jul 4, 2015 at 3:03:12 AM

Latest Report: Jul 4, 2015 at 2:00 AM


Visibility: 10 mi

Pressure: 29.66 "Hg

Humidity: 94%

Dew point: 55 °F

Location of Happy Valley-Goose BayLocation

Historic Weather in Happy Valley-Goose Bay — Graph

°F

Happy Valley-Goose Bay temperature yesterday

Maximum temperature yesterday: 70 °F (at 12:00 PM)
Minimum temperature yesterday: 61 °F (at 6:00 AM)
Average temperature yesterday: 65 °F

Past Weeks' High & Low Weather Summary

 TemperatureHumidityPressure
High82 °F (Jun 29, 1:00 PM)94% (Jul 1, 2:00 AM)30.09 "Hg (Jul 1, 2:00 AM)
Low41 °F (Jun 26, 5:00 AM)24% (Jun 29, 4:00 PM)29.50 "Hg (Jun 19, 5:00 AM)
Average61 °F62%29.84 "Hg
* Reported Jun 19 2:00 AM — Jul 4 2:00 AM, Happy Valley-Goose Bay, Weather by CustomWeather, © 2015

Note: Actual official high and low records may vary slightly from our data, if they occured in-between our weather recording intervals... More about our weather records

Advertising

Happy Valley-Goose Bay weather history for previous 24 hours

 ConditionsComfort  
Time TempWeatherWind HumidityBarometerVisibility
2:00 AM
Sat, Jul 4
57 °FMostly cloudy.10 mph94%29.66 "Hg10 mi
1:00 AM59 °FOvercast.8 mph94%29.65 "Hg15 mi
12:00 AM59 °FOvercast.7 mph94%29.64 "Hg15 mi
11:00 PM
Fri, Jul 3
61 °FMostly cloudy.5 mph88%29.64 "Hg15 mi
10:00 PM63 °FMostly cloudy.5 mph77%29.64 "Hg15 mi
9:00 PM63 °FSprinkles. Mostly cloudy.5 mph77%29.62 "Hg15 mi
8:00 PM64 °FSprinkles. Overcast.6 mph68%29.61 "Hg15 mi
7:00 PM64 °FSprinkles. Overcast.8 mph73%29.61 "Hg15 mi
6:00 PM66 °FSprinkles. Partly sunny.8 mph64%29.60 "Hg15 mi
5:00 PM68 °FSprinkles. Partly sunny.13 mph53%29.60 "Hg15 mi
4:56 PM68 °FSprinkles. Partly sunny.14 mph53%29.60 "Hg15 mi
4:00 PM70 °FPartly sunny.10 mph53%29.60 "Hg15 mi
3:00 PM70 °FScattered showers. Partly sunny.10 mph53%29.61 "Hg15 mi
2:00 PM68 °FPartly sunny.14 mph56%29.61 "Hg15 mi
1:00 PM70 °FScattered showers. Partly sunny.13 mph50%29.61 "Hg15 mi
12:00 PM70 °FScattered showers. Partly sunny.8 mph57%29.63 "Hg15 mi
11:00 AM66 °FScattered showers. Broken clouds.9 mph64%29.64 "Hg15 mi
10:00 AM66 °FPartly sunny.10 mph68%29.65 "Hg15 mi
9:00 AM64 °FBroken clouds.14 mph73%29.65 "Hg15 mi
8:00 AM63 °FPartly sunny.9 mph77%29.65 "Hg15 mi
7:00 AM63 °FMostly cloudy.14 mph77%29.64 "Hg15 mi
6:00 AM61 °FPartly sunny.12 mph83%29.65 "Hg15 mi
5:00 AM63 °FOvercast.7 mph77%29.65 "Hg15 mi
4:00 AM63 °FPassing clouds.12 mph77%29.65 "Hg15 mi
3:00 AM63 °FMostly cloudy.14 mph77%29.66 "Hg15 mi
Weather by CustomWeather, © 2015

See weather overviewHow to use our weather pages